Flag for Germany Weather past 2 weeks in Braunschweig, Lower Saxony, Germany

Now
54 °F

Overcast.


Feels Like: 52 °F
Forecast: 46 / 54 °F
Wind: 6 mph from South

Location: Braunschweig

Current Time: Oct 24, 2014 at 12:44:02 PM

Latest Report: Oct 24, 2014 at 12:20 PM


Visibility: N/A

Pressure: 30.18 "Hg

Humidity: 82%

Dew point: 48 °F

Location of BraunschweigLocation

Historic Weather in Braunschweig — Graph

°F

Braunschweig temperature yesterday

Maximum temperature yesterday: 55 °F (at 1:50 PM)
Minimum temperature yesterday: 45 °F (at 8:20 AM)
Average temperature yesterday: 51 °F

Past Weeks' High & Low Weather Summary

 TemperatureHumidityPressure
High72 °F (Oct 19, 3:50 PM)100% (Oct 9, 1:50 PM)30.21 "Hg (Oct 9, 1:50 PM)
Low45 °F (Oct 23, 8:20 AM)52% (Oct 14, 2:20 PM)29.45 "Hg (Oct 21, 6:20 PM)
Average57 °F88%29.84 "Hg
* Reported Oct 9 11:20 AM — Oct 24 11:50 AM, Braunschweig, Weather by CustomWeather, © 2014

Note: Actual official high and low records may vary slightly from our data, if they occured in-between our weather recording intervals... More about our weather records

Advertising

Braunschweig weather history for previous 24 hours

 ConditionsComfort  
Time TempWeatherWind HumidityBarometerVisibility
11:50 AM
Oct 24
52 °FOvercast.7 mph88%30.18 "HgN/A
11:20 AM52 °FOvercast.6 mph88%30.21 "HgN/A
10:50 AM52 °FOvercast.6 mph88%30.21 "HgN/A
10:20 AM50 °FOvercast.6 mph88%30.21 "HgN/A
9:50 AM50 °FPartly sunny.5 mph88%30.18 "HgN/A
9:20 AM50 °FPartly sunny.6 mph88%30.18 "HgN/A
8:50 AM50 °FPassing clouds.6 mph88%30.18 "HgN/A
8:20 AM50 °FPassing clouds.5 mph88%30.18 "HgN/A
7:50 AM48 °FOvercast.6 mph94%30.18 "HgN/A
7:20 AM48 °FOvercast.6 mph94%30.18 "HgN/A
6:50 AM48 °FOvercast.6 mph94%30.18 "HgN/A
5:20 AM48 °FPassing clouds.8 mph94%30.18 "HgN/A
2:50 AM48 °FPassing clouds.5 mph94%30.21 "HgN/A
2:20 AM46 °FPassing clouds.7 mph93%30.21 "HgN/A
1:50 AM48 °FPassing clouds.6 mph94%30.21 "HgN/A
7:50 PM
Oct 23
48 °FClear.3 mph94%30.21 "Hg10 mi
7:20 PM46 °FClear.2 mph93%30.21 "Hg10 mi
6:50 PM48 °FPassing clouds.3 mph87%30.18 "HgN/A
6:20 PM52 °FSunny.3 mph82%30.18 "Hg10 mi
5:50 PM54 °FSunny.6 mph77%30.18 "Hg10 mi
5:20 PM55 °FSunny.5 mph67%30.18 "Hg10 mi
4:50 PM54 °FPassing clouds.5 mph77%30.18 "HgN/A
4:20 PM54 °FScattered clouds.5 mph77%30.18 "HgN/A
3:50 PM55 °FBroken clouds.6 mph72%30.18 "HgN/A
3:20 PM55 °FPassing clouds.5 mph67%30.18 "HgN/A
2:50 PM55 °FPassing clouds.6 mph67%30.18 "HgN/A
2:20 PM55 °FPartly sunny.7 mph67%30.18 "HgN/A
1:50 PM55 °FPartly sunny.6 mph67%30.18 "HgN/A
1:20 PM54 °FScattered clouds.6 mph72%30.18 "HgN/A
12:50 PM54 °FPassing clouds.8 mph77%30.18 "HgN/A
12:20 PM54 °FPassing clouds.8 mph77%30.18 "HgN/A
Weather by CustomWeather, © 2014

See weather overviewHow to use our weather pages